STARLINK-11114, 59757

Orbit data source: Space-Track

STARLINK-11114, 59757 is a payload satellite owned by SpaceX/Seattle (US) in LEO that was launched on Tue, 14 May 2024 UTC via an FALCON 9 launch vehicle from the Air Force Western Test Range (AFWTR). Payload-class satellites include a variety of spacecraft equipped with specific instruments for various scientific and technological missions. These include communications satellites like Starlink; space stations such as the ISS; scientific satellites like the Hubble; Earth observation satellites from companies like Planet Labs, Umbra, and HawkEye 360; GPS; miniature CubeSats for education and research; and military/defense satellites.

Loading next visibility...
Identifier
59757, 2024-091E
Orbit
LEO
Country
Flag of USUS
Related business
Manufacturer
SpaceX/Seattle
Mission
Operational Commercial Communications
Bus & Motor
STARLINK V2MD, Unknown motor
Mass
960 kg wet, ~910 kg dry
Launch date (UTC)
2024-05-14 (2 years ago)
Launch vehicle
FALCON 9
Launch site
Air Force Western Test Range (AFWTR)
Object type
Payload
Rocket body
Debris
Shape & HBR
Box + 2 Pan, 18.1 m
Radar Cross Section
36.964 m², Large (>1 m²)

Expand to show TLE details & history
Last TLE update: 2 days ago

TLE from 2 days ago
0 STARLINK-11114
1 59757U 24091E   26171.39930398 -.00002586  00000-0 -16492-4 0  9999
2 59757  53.1595  60.0694 0000990 100.3219 259.7910 15.69715386121640
Epoch: 2026-06-20T09:34Z
TLE epoch observation values (Epoch: 2026-06-20T09:34:59.863Z)
Latitude
-0.00009°
Longitude
7.70542°
Altitude
360.745 km
Speed
7.694 km/s
True Right ascension
04h 00m 16s
True Declination
0° 00' 00"
Sunlit
Object was in daylight at epoch
Visualization orbit readout
Latitude
Unknown
Longitude
Unknown
Altitude
Unknown
Speed
Unknown
Apparent Right ascension
Unknown
Apparent Declination
Unknown
Sunlit
N/A
Visualization observer readout
Local Sidereal Time
21:27:49
Azimuth
Unknown
Elevation
Unknown
Doppler factor
Unknown
Orbital elements
Apogee altitude
360.639 km
Perigee altitude
359.305 km
Semi-major axis
6,738.109 km
Eccentricity
0.0001
Inclination
53.1595°
RAAN
60.0694°
Arg. of periapsis
100.3219°
True anomaly
259.77984°
Mean anomaly
259.791°
Eccentric anomaly
259.78542°
Mean motion
3.92406 °/min
Orbital period
91.74 mins
BSTAR
-0.000016492
Loading maneuver chart data...
Computing Atmospheric mass density...
Loading historical data...
Loading historical data...
Loading historical data...
Loading historical data...
Loading historical data...
Loading historical data...
Loading historical data...

Documentation

Showing up to 5 results
|